Regional Weather Roundup
Issued by NWS

Home | Current Version | Previous Version | Text Only | Print | Product List | Glossary Off
Versions: 1 2 3 4 5 6 7 8 9 10 11 12 13 14 15 16 17 18 19 20 21 22 23 24 25 26 27 28 29 30 31 32 33 34 35 36 37 38 39 40 41 42 43 44 45 46 47 48 49 50

000
ASUS43 KDMX 180407
RWRIA

WEATHER ROUNDUP FOR IOWA
NATIONAL WEATHER SERVICE DES MOINES IA
1100 PM CDT WED SEP 17 2014

NOTE: "FAIR" INDICATES FEW OR NO CLOUDS BELOW 12,000 FEET WITH NO
SIGNIFICANT WEATHER AND/OR OBSTRUCTIONS TO VISIBILITY.

* - THESE STATIONS ARE NOT NWS STATIONS...THUS NOT UNDER NWS
QUALITY CONTROL.  THEY ALSO DO NOT REPORT WEATHER SUCH
AS PRECIPITATION OR FOG.

IAZ001>003-012>014-020>022-031>034-043>046-180500-
   NORTHWEST IOWA

CITY           SKY/WX    TMP DP  RH WIND       PRES   REMARKS
CARROLL *      CLEAR     54  52  94 CALM      30.00R
CHEROKEE *     CLEAR     55  54  94 CALM      29.99R
DENISON *      PTCLDY    61  57  88 E6        29.97S
LE MARS *        N/A     64  57  77 VRB7      29.98R
ORANGE CITY *  CLEAR     63  54  72 CALM      29.99R
SHELDON *      MOCLDY    59  55  88 E5        29.98R
SIOUX CITY     CLEAR     62  58  86 SE6       29.97R
SPENCER        CLEAR     54  52  93 CALM      30.00R
STORM LAKE *   CLEAR     57  55  94 SE7       30.00R
$$

IAZ055>058-069>071-079>083-090>094-180500-
   SOUTHWEST IOWA

CITY           SKY/WX    TMP DP  RH WIND       PRES   REMARKS
ATLANTIC *     CLOUDY    61  57  88 NE5       29.98S
AUDUBON *      CLEAR     57  52  82 CALM      30.01R
CLARINDA *     CLEAR     64  59  82 VRB5      29.99R
COUNCIL BLFS * PTCLDY    64  61  88 E9        29.97R
CRESTON *      CLEAR     59  57  94 E7        30.00S
HARLAN  *      CLEAR     61  59  94 CALM      30.02R
LAMONI         CLEAR     61  59  93 E5        30.00R
SHENANDOAH *   CLEAR     61  59  94 N5        29.98R
$$

IAZ047>049-059>061-072>074-084-180500-
   CENTRAL IOWA

CITY           SKY/WX    TMP DP  RH WIND       PRES   REMARKS
AMES           CLEAR     54  52  93 CALM      30.01R
ANKENY *       CLEAR     57  55  94 CALM      30.00R
CHARITON *     CLEAR     59  57  94 SE5       30.00R
DES MOINES     CLEAR     65  57  75 SE7       30.00R
GRINNELL*      CLEAR     55  54  94 E3        30.02R
KNOXVILLE *    CLEAR     59  55  88 E5        29.99S
MARSHALLTOWN   CLEAR     53  50  89 SE5       30.01R
PELLA *        CLEAR     59  55  88 SE5       30.02R
PERRY *          N/A     57  55  92 SE5       30.00S
$$

IAZ004>006-015-016-023>025-035-036-180500-
   NORTH CENTRAL IOWA

CITY           SKY/WX    TMP DP  RH WIND       PRES   REMARKS
ALGONA *       CLEAR     59  54  82 SE6       30.01R
CLARION *        N/A     57  54  88 SE8       30.01R
ESTHERVILLE    CLEAR     56  53  90 SE6       30.00R
FORT DODGE *   CLEAR     55  52  88 SE3       30.01R
MASON CITY     CLEAR     52  50  93 CALM      30.03R
FOREST CITY *  MOCLDY    55  54  94 CALM      30.02R
IOWA FALLS *     N/A     54  50  87 CALM      30.03R
$$

IAZ007>011-017>019-026>030-037>042-050>054-066-180500-
   NORTHEAST IOWA

CITY           SKY/WX    TMP DP  RH WIND       PRES   REMARKS
CEDAR RAPIDS   CLEAR     54  53  97 SE3       30.02R
CHARLES CITY * CLEAR     54  52  94 E5        30.03R
CLINTON *      CLEAR     50  46  87 E5        30.06R
DECORAH *      CLEAR     55  52  88 SE5       30.03R
DUBUQUE        CLEAR     53  50  89 CALM      30.04R
MONTICELLO *   CLEAR     50  50 100 CALM      30.03R
OELWEIN *        N/A     54  50  87 E6        30.03S
WATERLOO       CLEAR     51  48  89 E3        30.01R
$$

IAZ064-065-067-068-078-180500-
   EAST CENTRAL IOWA

CITY           SKY/WX    TMP DP  RH WIND       PRES   REMARKS
DAVENPORT      CLEAR     51  47  86 E3        30.03R FOG
IOWA CITY      CLEAR     52  52 100 CALM      30.03R FOG
MT. PLEASANT * CLEAR     54  52  94 E5        30.02R
MUSCATINE *    CLEAR     54  52  94 CALM      30.03R
QUAD CITIES    CLEAR     53  50  89 CALM      30.02S
$$

IAZ062-063-075>077-085>089-095>099-180500-
   SOUTHEAST IOWA

CITY           SKY/WX    TMP DP  RH WIND       PRES   REMARKS
BURLINGTON     CLEAR     57  53  86 SE3       30.02R
FAIRFIELD *    CLEAR     55  52  88 CALM      30.02R
FORT MADISON * CLEAR     57  54  88 CALM      30.03R
KEOKUK *       CLEAR     57  55  94 CALM      30.01R
OSKALOOSA *      N/A     57  54  88 SE6       30.02R
CENTERVILLE *  CLEAR     55  55 100 E3        30.02R
OTTUMWA        CLEAR     57  53  86 E6        30.01R
WASHINGTON *   CLEAR     54  54 100 SE6       30.02S
$$

ABBREVIATIONS USED IN REMARKS
   TC - TEMPERATURES IN CELSIUS
  WCI - WIND CHILL INDEX
   HX - HEAT INDEX
  VSB - VISIBILITY
$$




USA.gov is the U.S. government's official web portal to all federal, state and local government web resources and services.